Total_Precipitation_Accumulation
0.05 0.09 0.15 0.19 0.17 0.13 0.09 0.07 0.09 0.16 0.32 0.41 0.52 0.57 0.59 0.61 0.57 0.51 0.46 0.42 0.35 0.33 0.35 0.43 0.57 0.60 0.68 0.82 1.00 1.03 1.19 1.35 1.40 1.51 1.57 1.60 1.68 1.69 1.65 1.66 1.70 1.88 1.95 1.94
0.04 0.07 0.11 0.13 0.16 0.11 0.09 0.07 0.07 0.16 0.35 0.43 0.45 0.51 0.59 0.59 0.58 0.55 0.47 0.43 0.45 0.47 0.47 0.50 0.56 0.63 0.71 0.76 0.94 1.13 1.36 1.64 1.68 1.77 1.82 1.91 2.06 2.14 2.07 2.03 2.11 2.16 2.12 2.06
0.07 0.10 0.11 0.15 0.15 0.12 0.14 0.13 0.14 0.22 0.33 0.38 0.44 0.53 0.73 0.75 0.69 0.69 0.62 0.59 0.61 0.69 0.67 0.66 0.66 0.70 0.78 0.85 0.99 1.22 1.47 1.71 1.91 2.03 2.11 2.19 2.29 2.30 2.25 2.35 2.50 2.51 2.39 2.22
0.12 0.16 0.22 0.19 0.19 0.17 0.19 0.22 0.27 0.35 0.37 0.48 0.67 0.79 0.94 0.98 0.86 0.83 0.74 0.67 0.70 0.81 0.88 0.84 0.83 0.91 1.03 1.17 1.32 1.53 1.73 1.90 2.05 2.09 2.13 2.19 2.26 2.20 2.24 2.37 2.44 2.45 2.38 2.24
0.23 0.25 0.25 0.26 0.30 0.30 0.34 0.47 0.48 0.56 0.63 0.71 0.79 0.80 0.87 0.83 0.73 0.69 0.66 0.73 0.78 0.88 0.98 1.05 1.06 1.16 1.24 1.30 1.40 1.60 1.77 1.86 1.88 1.99 2.10 2.16 2.20 2.24 2.26 2.24 2.13 2.04 2.01 2.01
0.36 0.38 0.40 0.43 0.46 0.42 0.49 0.90 0.93 0.88 0.84 0.80 0.84 1.03 1.01 0.81 0.73 0.71 0.69 0.72 0.84 0.86 0.93 1.03 1.11 1.14 1.21 1.31 1.46 1.67 1.84 1.87 1.86 1.96 2.04 2.10 2.16 2.21 2.15 2.07 2.01 1.95 1.85 1.87
0.50 0.53 0.49 0.48 0.43 0.43 0.75 1.07 1.03 1.02 1.06 0.98 1.04 1.10 1.04 0.90 0.88 0.81 0.74 0.72 0.78 0.89 0.96 1.00 1.08 1.12 1.18 1.30 1.43 1.55 1.62 1.69 1.79 1.94 2.04 2.07 2.11 2.10 2.03 1.94 1.95 1.95 1.87 1.78
0.66 0.81 0.85 0.62 0.52 0.73 0.99 0.87 1.03 1.15 1.14 1.12 1.04 0.95 0.96 0.95 0.95 0.89 0.82 0.85 0.88 0.96 1.11 1.18 1.21 1.21 1.28 1.28 1.34 1.44 1.44 1.49 1.52 1.61 1.75 1.80 1.88 1.84 1.85 1.80 1.74 1.69 1.64 1.57
0.91 1.03 0.86 0.73 0.75 0.83 0.87 0.90 0.97 1.11 1.16 1.12 1.13 1.08 0.93 0.89 0.87 0.98 1.06 1.07 1.04 1.03 1.10 1.16 1.25 1.33 1.38 1.33 1.28 1.29 1.31 1.38 1.43 1.43 1.56 1.68 1.74 1.70 1.67 1.62 1.54 1.49 1.44 1.39
1.12 1.20 1.05 0.95 0.91 0.85 0.83 0.87 0.92 1.06 1.17 1.24 1.20 1.05 0.96 0.88 0.82 0.80 0.85 0.89 0.96 0.99 1.03 1.17 1.15 1.18 1.24 1.27 1.26 1.31 1.36 1.35 1.37 1.42 1.51 1.71 1.78 1.66 1.55 1.48 1.41 1.39 1.34 1.34
1.26 1.32 1.14 1.04 0.97 1.02 1.00 0.94 0.93 1.01 1.09 1.09 1.03 1.00 0.96 0.86 0.78 0.75 0.72 0.69 0.73 0.79 0.82 0.89 0.90 0.92 0.95 0.99 1.07 1.12 1.12 1.08 1.05 1.12 1.26 1.45 1.55 1.52 1.38 1.33 1.37 1.38 1.34 1.30
1.37 1.24 1.27 1.28 1.16 1.14 1.21 1.23 1.18 1.14 1.13 1.05 0.94 0.88 0.82 0.71 0.64 0.63 0.60 0.58 0.62 0.65 0.66 0.69 0.75 0.83 0.91 1.05 1.16 1.14 1.05 0.99 0.98 0.99 1.09 1.27 1.47 1.55 1.42 1.21 1.23 1.20 1.14 1.08
1.22 1.16 1.26 1.32 1.32 1.38 1.47 1.38 1.31 1.26 1.15 1.00 0.97 0.87 0.76 0.71 0.64 0.59 0.55 0.55 0.59 0.63 0.67 0.74 0.76 0.74 0.79 0.92 1.04 1.14 1.10 1.05 1.02 1.00 1.04 1.13 1.36 1.58 1.62 1.39 1.16 1.06 0.93 0.82
1.22 1.23 1.39 1.44 1.49 1.52 1.50 1.45 1.38 1.38 1.28 1.13 1.02 0.90 0.83 0.84 0.76 0.67 0.65 0.68 0.74 0.76 0.78 0.81 0.81 0.79 0.77 0.84 0.93 1.02 1.07 1.04 0.94 0.91 0.97 1.07 1.28 1.55 1.71 1.64 1.44 1.18 0.91 0.75
1.33 1.34 1.36 1.28 1.35 1.40 1.44 1.45 1.36 1.40 1.35 1.22 1.05 0.89 0.79 0.77 0.77 0.74 0.73 0.80 0.93 0.92 0.87 0.84 0.82 0.80 0.77 0.81 0.87 0.92 0.98 0.99 0.94 0.93 0.97 1.02 1.21 1.46 1.64 1.69 1.59 1.44 1.10 0.80
1.41 1.36 1.23 1.17 1.25 1.30 1.32 1.27 1.19 1.25 1.23 1.17 1.08 0.97 0.87 0.81 0.79 0.77 0.81 0.92 1.08 1.10 0.98 0.91 0.89 0.89 0.88 0.87 0.84 0.83 0.86 0.89 0.80 0.76 0.79 0.82 0.92 1.14 1.38 1.52 1.46 1.37 1.17 0.79
1.40 1.46 1.38 1.28 1.31 1.34 1.32 1.21 1.13 1.14 1.13 1.14 1.17 1.10 1.06 1.03 0.99 1.00 1.07 1.13 1.17 1.13 1.00 0.91 0.86 0.82 0.82 0.87 0.89 0.83 0.78 0.77 0.68 0.60 0.64 0.70 0.76 0.94 1.19 1.35 1.30 1.20 1.06 0.73
1.25 1.21 1.22 1.24 1.31 1.35 1.27 1.11 1.04 1.02 1.02 1.09 1.16 1.15 1.20 1.21 1.20 1.26 1.29 1.27 1.17 1.01 0.87 0.81 0.74 0.70 0.68 0.66 0.66 0.63 0.63 0.65 0.61 0.59 0.64 0.66 0.68 0.84 1.07 1.23 1.17 1.10 1.00 0.77
1.10 1.05 1.03 1.06 1.15 1.17 1.11 1.02 0.94 0.90 0.87 0.92 0.97 1.01 1.06 1.09 1.12 1.19 1.19 1.28 1.31 1.17 0.91 0.71 0.69 0.61 0.59 0.55 0.54 0.51 0.49 0.50 0.48 0.49 0.53 0.54 0.63 0.81 0.97 1.05 1.01 0.96 0.85 0.73
1.12 1.09 0.98 1.01 1.04 0.98 0.90 0.85 0.79 0.79 0.79 0.80 0.79 0.79 0.84 0.90 0.98 1.11 1.18 1.29 1.33 1.21 1.00 0.81 0.65 0.54 0.48 0.41 0.39 0.40 0.43 0.45 0.48 0.51 0.53 0.60 0.68 0.80 0.87 0.86 0.84 0.81 0.77 0.77
1.02 1.01 0.85 0.83 0.85 0.79 0.72 0.66 0.61 0.63 0.67 0.64 0.62 0.63 0.67 0.72 0.81 1.00 1.30 1.50 1.32 1.06 0.89 0.79 0.61 0.48 0.41 0.39 0.36 0.35 0.39 0.43 0.48 0.55 0.58 0.63 0.71 0.78 0.79 0.77 0.74 0.71 0.72 0.75
0.88 0.83 0.78 0.72 0.67 0.66 0.59 0.58 0.57 0.55 0.54 0.51 0.49 0.55 0.60 0.68 0.78 0.88 1.04 1.31 1.33 1.19 0.89 0.67 0.52 0.43 0.39 0.38 0.36 0.39 0.41 0.41 0.46 0.51 0.53 0.58 0.68 0.76 0.74 0.68 0.63 0.62 0.64 0.70
0.85 0.75 0.73 0.70 0.64 0.61 0.54 0.50 0.52 0.54 0.49 0.45 0.45 0.49 0.55 0.65 0.76 0.99 1.12 1.03 1.06 1.16 0.91 0.69 0.60 0.51 0.39 0.33 0.36 0.39 0.40 0.44 0.52 0.53 0.51 0.54 0.56 0.62 0.64 0.60 0.59 0.60 0.65 0.65
0.85 0.79 0.72 0.63 0.59 0.57 0.57 0.50 0.46 0.50 0.46 0.40 0.37 0.38 0.44 0.57 0.64 0.74 0.90 0.95 0.96 1.00 0.81 0.65 0.55 0.45 0.37 0.34 0.39 0.44 0.51 0.58 0.59 0.53 0.47 0.48 0.49 0.51 0.56 0.55 0.52 0.57 0.61 0.63
0.82 0.78 0.69 0.60 0.58 0.57 0.55 0.48 0.44 0.45 0.40 0.37 0.35 0.35 0.37 0.45 0.59 0.72 0.78 0.81 0.92 0.96 0.83 0.68 0.55 0.48 0.42 0.43 0.48 0.56 0.62 0.56 0.50 0.45 0.41 0.42 0.46 0.51 0.52 0.55 0.58 0.58 0.57 0.60
0.75 0.73 0.67 0.58 0.56 0.54 0.51 0.49 0.47 0.42 0.37 0.37 0.36 0.34 0.36 0.42 0.50 0.60 0.68 0.72 0.77 0.86 0.81 0.65 0.48 0.45 0.45 0.50 0.55 0.59 0.58 0.52 0.46 0.44 0.43 0.45 0.49 0.53 0.52 0.55 0.58 0.57 0.57 0.59
0.69 0.65 0.64 0.62 0.60 0.56 0.53 0.53 0.52 0.47 0.41 0.41 0.46 0.47 0.48 0.50 0.53 0.59 0.63 0.67 0.68 0.67 0.62 0.52 0.42 0.41 0.40 0.41 0.46 0.48 0.49 0.49 0.48 0.47 0.48 0.50 0.53 0.55 0.52 0.50 0.49 0.49 0.48 0.47